GW3701 Weather Reports


time (UTC)temp
C
wind
direction
speed
KPH
gust
KPH
rain 1hr
cm
rain 24hr
cm
rain mn
cm
humidity
%
barometer
mb
20260906202424 39 209 1.6 1.6 0.00 0.00 0.00 35 1012.4
20260906201920 38 163 6.4 11.3 0.00 0.00 0.00 35 1012.6
20260906201413 38 204 3.2 3.2 0.00 0.00 0.00 36 1012.6
20260906200909 38 224 1.6 3.2 0.00 0.00 0.00 37 1012.7
20260906200400 37 225 3.2 3.2 0.00 0.00 0.00 38 1012.8
20260906195900 37 215 0.0 0.0 0.00 0.00 0.00 37 1013.0
20260906195356 38 202 3.2 3.2 0.00 0.00 0.00 36 1013.0
20260906194852 38 26 4.8 4.8 0.00 0.00 0.00 36 1013.2
20260906194348 38 185 3.2 3.2 0.00 0.00 0.00 36 1013.0
20260906193842 39 214 1.6 1.6 0.00 0.00 0.00 35 1013.3
20260906193338 39 212 4.8 4.8 0.00 0.00 0.00 35 1013.3
20260906192833 39 187 9.7 11.3 0.00 0.00 0.00 35 1013.3
20260906192327 38 206 3.2 3.2 0.00 0.00 0.00 37 1013.4
20260906191826 38 230 3.2 6.4 0.00 0.00 0.00 37 1013.5
20260906191321 38 199 4.8 6.4 0.00 0.00 0.00 37 1013.6
20260906190816 38 207 4.8 6.4 0.00 0.00 0.00 36 1013.5
20260906190315 39 187 3.2 4.8 0.00 0.00 0.00 35 1013.4
20260906185815 38 214 1.6 1.6 0.00 0.00 0.00 35 1013.7
20260906185314 38 202 1.6 1.6 0.00 0.00 0.00 36 1013.8
20260906184809 38 225 3.2 4.8 0.00 0.00 0.00 38 1013.8
20260906184304 37 140 4.8 6.4 0.00 0.00 0.00 38 1013.9
20260906183759 38 222 3.2 4.8 0.00 0.00 0.00 39 1013.8
20260906183256 38 206 0.0 1.6 0.00 0.00 0.00 38 1014.0
20260906182755 38 199 4.8 6.4 0.00 0.00 0.00 38 1014.2
20260906182251 38 212 1.6 3.2 0.00 0.00 0.00 38 1014.3
20260906181746 37 200 3.2 3.2 0.00 0.00 0.00 37 1014.3
20260906181242 38 206 1.6 1.6 0.00 0.00 0.00 37 1014.4
20260906180737 37 234 8.0 11.3 0.00 0.00 0.00 36 1014.5
20260906180232 37 294 4.8 4.8 0.00 0.00 0.00 40 1014.3
20260906175729 36 86 1.6 1.6 0.00 0.00 0.00 41 1014.6
20260906175225 36 206 4.8 6.4 0.00 0.00 0.00 41 1014.8
20260906174723 36 183 3.2 3.2 0.00 0.00 0.00 42 1014.7
20260906174218 35 342 3.2 6.4 0.00 0.00 0.00 43 1014.7
20260906173714 36 163 6.4 6.4 0.00 0.00 0.00 43 1015.0
20260906173209 36 193 3.2 3.2 0.00 0.00 0.00 41 1015.0
20260906172703 36 226 1.6 1.6 0.00 0.00 0.00 41 1015.0
20260906172158 36 212 0.0 0.0 0.00 0.00 0.00 42 1015.2
20260906171658 36 228 1.6 1.6 0.00 0.00 0.00 42 1015.2
20260906171154 36 215 0.0 0.0 0.00 0.00 0.00 42 1015.4
20260906170650 36 217 0.0 0.0 0.00 0.00 0.00 43 1015.5
20260906170149 36 194 0.0 1.6 0.00 0.00 0.00 43 1015.5
20260906165646 35 205 3.2 3.2 0.00 0.00 0.00 44 1015.7
20260906165141 35 210 1.6 3.2 0.00 0.00 0.00 44 1015.9
20260906164639 36 224 1.6 3.2 0.00 0.00 0.00 43 1015.8
20260906164135 36 209 3.2 4.8 0.00 0.00 0.00 42 1015.7
20260906163631 36 194 6.4 6.4 0.00 0.00 0.00 41 1015.7
20260906163127 36 203 8.0 11.3 0.00 0.00 0.00 42 1015.7
20260906162624 35 209 1.6 1.6 0.00 0.00 0.00 42 1015.9
20260906162118 35 228 1.6 3.2 0.00 0.00 0.00 45 1015.8
20260906161618 35 217 0.0 0.0 0.00 0.00 0.00 44 1015.6
20260906161117 34 220 0.0 0.0 0.00 0.00 0.00 46 1015.6
20260906160616 35 215 1.6 1.6 0.00 0.00 0.00 48 1015.6
20260906160115 35 217 0.0 1.6 0.00 0.00 0.00 47 1015.7
20260906155613 34 215 3.2 4.8 0.00 0.00 0.00 46 1015.6
20260906155109 34 201 3.2 3.2 0.00 0.00 0.00 47 1015.6
20260906154604 35 218 1.6 1.6 0.00 0.00 0.00 47 1015.6
20260906154103 35 211 1.6 1.6 0.00 0.00 0.00 47 1015.5
20260906153602 33 216 1.6 1.6 0.00 0.00 0.00 50 1015.4
20260906153057 33 218 3.2 3.2 0.00 0.00 0.00 51 1015.5
20260906152557 33 209 3.2 3.2 0.00 0.00 0.00 51 1015.6
20260906152051 32 214 1.6 3.2 0.00 0.00 0.00 52 1015.7
20260906151546 32 210 0.0 0.0 0.00 0.00 0.00 52 1015.4
20260906151042 32 213 0.0 0.0 0.00 0.00 0.00 54 1015.5
20260906150537 32 219 1.6 1.6 0.00 0.00 0.00 55 1015.5
20260906150032 32 209 1.6 1.6 0.00 0.00 0.00 55 1015.4
20260906145531 32 202 1.6 3.2 0.00 0.00 0.00 54 1015.5
20260906145026 31 213 0.0 0.0 0.00 0.00 0.00 57 1015.5
20260906144520 31 216 0.0 0.0 0.00 0.00 0.00 57 1015.4
20260906144016 31 217 0.0 0.0 0.00 0.00 0.00 58 1015.4
20260906143511 31 216 0.0 0.0 0.00 0.00 0.00 58 1015.5
20260906143007 31 215 3.2 4.8 0.00 0.00 0.00 57 1015.2
20260906142501 31 224 3.2 3.2 0.00 0.00 0.00 57 1015.4
20260906141956 31 214 0.0 0.0 0.00 0.00 0.00 58 1015.5
20260906141455 30 216 0.0 0.0 0.00 0.00 0.00 61 1015.2
20260906140951 30 212 0.0 1.6 0.00 0.00 0.00 59 1015.3
20260906140445 30 214 0.0 0.0 0.00 0.00 0.00 60 1015.3
20260906135943 30 221 6.4 6.4 0.00 0.00 0.00 59 1015.2
20260906135442 29 230 3.2 4.8 0.00 0.00 0.00 60 1015.3
20260906134937 28 221 3.2 3.2 0.00 0.00 0.00 62 1015.0
20260906134432 28 215 0.0 0.0 0.00 0.00 0.00 63 1015.0
20260906133927 28 214 3.2 3.2 0.00 0.00 0.00 64 1015.2
20260906133423 28 217 0.0 1.6 0.00 0.00 0.00 64 1014.9
20260906132919 28 213 1.6 1.6 0.00 0.00 0.00 64 1014.9
20260906132414 28 200 3.2 3.2 0.00 0.00 0.00 63 1015.0
20260906131909 27 204 3.2 3.2 0.00 0.00 0.00 64 1014.8
20260906131405 27 197 3.2 6.4 0.00 0.00 0.00 64 1014.8
20260906130901 27 206 3.2 3.2 0.00 0.00 0.00 65 1014.8
20260906130359 27 215 3.2 4.8 0.00 0.00 0.00 65 1014.8
20260906125859 26 220 3.2 4.8 0.00 0.00 0.00 66 1014.7
20260906125356 27 214 3.2 3.2 0.00 0.00 0.00 66 1014.7
20260906124851 26 208 3.2 3.2 0.00 0.00 0.00 65 1014.8
20260906124347 26 206 1.6 3.2 0.00 0.00 0.00 66 1014.6
20260906123846 26 204 1.6 3.2 0.00 0.00 0.00 67 1014.6
20260906123341 26 207 3.2 3.2 0.00 0.00 0.00 66 1014.7
20260906122841 26 205 1.6 3.2 0.00 0.00 0.00 67 1014.7
20260906122336 26 208 1.6 3.2 0.00 0.00 0.00 67 1014.4
20260906121833 26 201 1.6 3.2 0.00 0.00 0.00 67 1014.3
20260906121328 26 178 3.2 6.4 0.00 0.00 0.00 67 1014.4
20260906120824 26 208 3.2 3.2 0.00 0.00 0.00 67 1014.3
20260906120320 26 211 1.6 4.8 0.00 0.00 0.00 67 1014.3
20260906115816 26 206 3.2 3.2 0.00 0.00 0.00 67 1014.2
20260906115311 26 205 3.2 3.2 0.00 0.00 0.00 67 1014.2
20260906114810 26 190 3.2 4.8 0.00 0.00 0.00 67 1014.2
20260906114305 26 205 1.6 1.6 0.00 0.00 0.00 67 1014.0
20260906113800 26 209 1.6 1.6 0.00 0.00 0.00 67 1014.0
20260906113300 26 208 1.6 1.6 0.00 0.00 0.00 67 1014.0
20260906112755 26 208 1.6 3.2 0.00 0.00 0.00 66 1014.0
20260906112251 26 208 0.0 0.0 0.00 0.00 0.00 66 1013.7
20260906111750 26 206 1.6 4.8 0.00 0.00 0.00 65 1013.7
20260906111244 26 206 3.2 3.2 0.00 0.00 0.00 65 1013.6
20260906110739 26 204 4.8 4.8 0.00 0.00 0.00 65 1013.6
20260906110236 26 203 3.2 3.2 0.00 0.00 0.00 65 1013.7
20260906105734 26 204 3.2 4.8 0.00 0.00 0.00 65 1013.7
20260906105230 26 204 3.2 3.2 0.00 0.00 0.00 65 1013.5
20260906104725 26 201 3.2 3.2 0.00 0.00 0.00 65 1013.5
20260906104224 26 203 3.2 4.8 0.00 0.00 0.00 65 1013.6
20260906103722 26 194 3.2 4.8 0.00 0.00 0.00 65 1013.4
20260906103217 26 206 3.2 4.8 0.00 0.00 0.00 64 1013.4
20260906102712 26 209 3.2 4.8 0.00 0.00 0.00 65 1013.5
20260906102211 26 208 3.2 4.8 0.00 0.00 0.00 66 1013.4
20260906101706 26 204 3.2 4.8 0.00 0.00 0.00 66 1013.2
20260906101201 26 204 0.0 1.6 0.00 0.00 0.00 67 1013.2
20260906100656 26 208 0.0 0.0 0.00 0.00 0.00 68 1013.3
20260906100151 26 207 1.6 3.2 0.00 0.00 0.00 67 1013.5
20260906095646 26 206 0.0 1.6 0.00 0.00 0.00 67 1013.3
20260906095141 26 204 1.6 1.6 0.00 0.00 0.00 67 1013.5
20260906094640 26 206 0.0 0.0 0.00 0.00 0.00 66 1013.4
20260906094135 26 204 0.0 1.6 0.00 0.00 0.00 65 1013.3
20260906093632 26 206 0.0 0.0 0.00 0.00 0.00 66 1013.5
20260906093126 26 208 0.0 0.0 0.00 0.00 0.00 66 1013.3
20260906092621 26 207 0.0 0.0 0.00 0.00 0.00 67 1013.2
20260906092116 26 207 0.0 0.0 0.00 0.00 0.00 67 1013.4
20260906091612 26 207 0.0 0.0 0.00 0.00 0.00 66 1013.3
20260906091109 26 207 0.0 0.0 0.00 0.00 0.00 66 1013.4
20260906090608 26 206 0.0 0.0 0.00 0.00 0.00 65 1013.5
20260906085602 26 207 0.0 0.0 0.00 0.00 0.00 65 1013.4
20260906085056 27 207 0.0 0.0 0.00 0.00 0.00 64 1013.4
20260906084551 27 210 0.0 0.0 0.00 0.00 0.00 63 1013.3
20260906084050 27 206 0.0 1.6 0.00 0.00 0.00 63 1013.4
20260906083546 27 205 3.2 3.2 0.00 0.00 0.00 63 1013.2
20260906083045 27 203 3.2 3.2 0.00 0.00 0.00 62 1013.2
20260906082541 27 205 1.6 1.6 0.00 0.00 0.00 62 1013.2
20260906082037 27 205 3.2 4.8 0.00 0.00 0.00 62 1013.0
20260906081532 27 208 0.0 0.0 0.00 0.00 0.00 61 1013.4
20260906081027 27 205 0.0 1.6 0.00 0.00 0.00 60 1013.3
20260906080524 28 205 1.6 1.6 0.00 0.00 0.00 59 1013.3
20260906080019 28 206 1.6 3.2 0.00 0.00 0.00 58 1013.2
20260906075514 28 206 1.6 1.6 0.00 0.00 0.00 57 1013.2
20260906075009 28 210 3.2 3.2 0.00 0.00 0.00 57 1013.3
20260906074503 28 204 3.2 4.8 0.00 0.00 0.00 57 1013.1
20260906074002 28 205 3.2 3.2 0.00 0.00 0.00 58 1013.2
20260906073456 27 206 3.2 3.2 0.00 0.00 0.00 59 1013.1
20260906072953 27 208 0.0 0.0 0.00 0.00 0.00 61 1013.3
20260906072448 27 208 1.6 1.6 0.00 0.00 0.00 60 1013.1
20260906071944 27 208 0.0 1.6 0.00 0.00 0.00 60 1013.1
20260906071440 27 208 0.0 0.0 0.00 0.00 0.00 59 1013.3
20260906070935 28 208 1.6 1.6 0.00 0.00 0.00 58 1013.2
20260906070431 28 208 1.6 1.6 0.00 0.00 0.00 58 1013.3
20260906065927 28 207 0.0 0.0 0.00 0.00 0.00 58 1013.2
20260906065421 28 206 3.2 3.2 0.00 0.00 0.00 58 1013.2
20260906064916 27 208 1.6 1.6 0.00 0.00 0.00 58 1013.4
20260906064413 27 208 3.2 3.2 0.00 0.00 0.00 58 1013.1
20260906063913 27 209 1.6 1.6 0.00 0.00 0.00 59 1013.2
20260906063408 27 209 0.0 0.0 0.00 0.00 0.00 60 1013.3
20260906062903 27 209 1.6 1.6 0.00 0.00 0.00 61 1013.1
20260906062403 27 209 0.0 0.0 0.00 0.00 0.00 62 1013.1
20260906061858 27 209 0.0 0.0 0.00 0.00 0.00 61 1013.4
20260906061354 27 209 0.0 0.0 0.00 0.00 0.00 61 1013.4
20260906060848 27 209 0.0 0.0 0.00 0.00 0.00 61 1013.2
20260906060346 27 209 0.0 0.0 0.00 0.00 0.00 60 1013.4
20260906055842 27 209 0.0 0.0 0.00 0.00 0.00 59 1013.2
20260906055337 27 209 0.0 0.0 0.00 0.00 0.00 59 1013.3
20260906054832 27 209 1.6 3.2 0.00 0.00 0.00 59 1013.2
20260906054326 27 208 1.6 1.6 0.00 0.00 0.00 60 1013.2
20260906053818 27 207 1.6 3.2 0.00 0.00 0.00 60 1013.1
20260906053314 27 207 1.6 1.6 0.00 0.00 0.00 62 1013.1
20260906052808 27 205 0.0 0.0 0.00 0.00 0.00 63 1013.1
20260906052306 27 198 3.2 3.2 0.00 0.00 0.00 65 1013.2
20260906051802 27 198 3.2 3.2 0.00 0.00 0.00 64 1013.2
20260906051301 28 198 1.6 1.6 0.00 0.00 0.00 57 1013.3
20260906050756 28 207 0.0 0.0 0.00 0.00 0.00 55 1013.0
20260906050252 29 207 0.0 0.0 0.00 0.00 0.00 54 1013.1
20260906045750 29 211 1.6 1.6 0.00 0.00 0.00 54 1012.9
20260906045245 29 205 1.6 1.6 0.00 0.00 0.00 54 1013.0
20260906044741 29 210 1.6 3.2 0.00 0.00 0.00 54 1012.8
20260906044236 29 205 1.6 1.6 0.00 0.00 0.00 54 1013.0
20260906043732 29 206 1.6 1.6 0.00 0.00 0.00 54 1013.0
20260906043228 29 206 0.0 0.0 0.00 0.00 0.00 55 1013.1
20260906042727 30 213 0.0 0.0 0.00 0.00 0.00 54 1013.1
20260906042226 30 206 0.0 0.0 0.00 0.00 0.00 54 1013.1
20260906041722 29 205 1.6 3.2 0.00 0.00 0.00 54 1013.1
20260906041217 29 207 0.0 1.6 0.00 0.00 0.00 55 1012.9
20260906040712 29 207 0.0 0.0 0.00 0.00 0.00 55 1013.0
20260906040207 30 207 0.0 0.0 0.00 0.00 0.00 54 1013.1
20260906035703 30 207 0.0 0.0 0.00 0.00 0.00 54 1013.1
20260906035158 30 207 0.0 0.0 0.00 0.00 0.00 53 1013.2
20260906034653 30 207 0.0 1.6 0.00 0.00 0.00 53 1013.1
20260906034148 30 209 0.0 0.0 0.00 0.00 0.00 53 1013.0
20260906033643 30 208 0.0 0.0 0.00 0.00 0.00 53 1013.0
20260906033138 30 209 0.0 1.6 0.00 0.00 0.00 52 1013.0
20260906032635 30 205 1.6 3.2 0.00 0.00 0.00 52 1012.9
20260906032134 30 207 1.6 3.2 0.00 0.00 0.00 51 1012.8
20260906031630 30 208 1.6 1.6 0.00 0.00 0.00 51 1012.8
20260906031125 30 208 0.0 0.0 0.00 0.00 0.00 50 1013.0
20260906030624 30 210 0.0 0.0 0.00 0.00 0.00 51 1013.0
20260906030120 31 206 1.6 3.2 0.00 0.00 0.00 51 1013.1
20260906025619 31 208 1.6 1.6 0.00 0.00 0.00 50 1012.8
20260906025118 31 207 0.0 1.6 0.00 0.00 0.00 51 1012.8
20260906024613 31 207 0.0 0.0 0.00 0.00 0.00 51 1012.8
20260906024107 31 211 0.0 0.0 0.00 0.00 0.00 51 1012.9
20260906023603 31 208 0.0 0.0 0.00 0.00 0.00 51 1012.7
20260906023058 31 208 1.6 1.6 0.00 0.00 0.00 51 1012.7
20260906022553 30 208 1.6 1.6 0.00 0.00 0.00 51 1012.7
20260906022049 30 208 0.0 0.0 0.00 0.00 0.00 51 1012.6
20260906021544 30 208 0.0 0.0 0.00 0.00 0.00 51 1012.5
20260906021043 30 209 0.0 0.0 0.00 0.00 0.00 51 1012.5
20260906020543 30 209 0.0 0.0 0.00 0.00 0.00 51 1012.5
20260906020042 30 208 0.0 0.0 0.00 0.00 0.00 51 1012.4
20260906015541 30 208 0.0 0.0 0.00 0.00 0.00 52 1012.4
20260906015036 30 208 0.0 0.0 0.00 0.00 0.00 51 1012.4
20260906014531 30 208 0.0 0.0 0.00 0.00 0.00 51 1012.6
20260906014026 30 208 0.0 0.0 0.00 0.00 0.00 51 1012.2
20260906013522 30 208 0.0 0.0 0.00 0.00 0.00 51 1012.1
20260906013018 31 208 0.0 0.0 0.00 0.00 0.00 50 1012.0
20260906012513 31 208 0.0 0.0 0.00 0.00 0.00 50 1011.9
20260906012011 31 208 0.0 0.0 0.00 0.00 0.00 49 1012.1
20260906011508 31 209 0.0 0.0 0.00 0.00 0.00 49 1011.9
20260906011002 32 209 0.0 0.0 0.00 0.00 0.00 48 1012.0
20260906010457 32 209 0.0 0.0 0.00 0.00 0.00 47 1011.8
20260906005954 32 209 0.0 0.0 0.00 0.00 0.00 47 1012.0
20260906005453 33 208 0.0 0.0 0.00 0.00 0.00 46 1011.9
20260906004951 33 209 0.0 0.0 0.00 0.00 0.00 45 1011.7
20260906004451 33 209 0.0 0.0 0.00 0.00 0.00 45 1011.8
20260906003947 33 208 0.0 0.0 0.00 0.00 0.00 44 1011.7
20260906003442 34 199 1.6 3.2 0.00 0.00 0.00 43 1011.8
20260906002937 35 203 3.2 4.8 0.00 0.00 0.00 42 1011.7
20260906002437 35 187 1.6 1.6 0.00 0.00 0.00 41 1011.5
20260906001932 35 210 0.0 0.0 0.00 0.00 0.00 41 1011.6
20260906001427 35 211 0.0 0.0 0.00 0.00 0.00 40 1011.6
20260906000917 35 209 0.0 0.0 0.00 0.00 0.00 40 1011.7
20260906000412 35 209 0.0 0.0 0.00 0.00 0.00 40 1011.6
20260905235907 35 209 0.0 0.0 0.00 0.00 0.00 40 1011.5
20260905235401 35 207 0.0 1.6 0.00 0.00 0.00 40 1011.5
20260905234856 35 203 1.6 1.6 0.00 0.00 0.00 40 1011.5
20260905234351 35 208 0.0 0.0 0.00 0.00 0.00 40 1011.4
20260905233846 36 205 0.0 1.6 0.00 0.00 0.00 39 1011.6
20260905233342 36 209 0.0 0.0 0.00 0.00 0.00 39 1011.4
20260905232841 36 205 1.6 1.6 0.00 0.00 0.00 38 1011.4
20260905232337 36 211 0.0 0.0 0.00 0.00 0.00 37 1011.4
20260905231832 37 214 1.6 1.6 0.00 0.00 0.00 37 1011.3
20260905231332 37 212 1.6 3.2 0.00 0.00 0.00 37 1011.0
20260905230830 36 204 4.8 11.3 0.00 0.00 0.00 37 1011.3
20260905230327 36 199 1.6 3.2 0.00 0.00 0.00 38 1011.0
20260905225827 37 194 4.8 6.4 0.00 0.00 0.00 37 1011.2
20260905225322 37 209 1.6 1.6 0.00 0.00 0.00 36 1011.3
20260905224822 36 197 4.8 9.7 0.00 0.00 0.00 37 1010.9
20260905224318 37 89 6.4 9.7 0.00 0.00 0.00 37 1011.2
20260905223812 37 191 4.8 4.8 0.00 0.00 0.00 36 1010.9
20260905223310 37 206 3.2 4.8 0.00 0.00 0.00 36 1011.0
20260905222805 38 135 1.6 3.2 0.00 0.00 0.00 36 1011.0
20260905222306 38 213 0.0 1.6 0.00 0.00 0.00 36 1011.0
20260905221800 37 208 3.2 3.2 0.00 0.00 0.00 36 1011.2
20260905221256 37 187 4.8 6.4 0.00 0.00 0.00 38 1011.2
20260905220752 37 214 1.6 1.6 0.00 0.00 0.00 38 1011.4
20260905220248 38 185 6.4 11.3 0.00 0.00 0.00 36 1011.4
20260905215747 37 211 0.0 0.0 0.00 0.00 0.00 38 1011.3
20260905215243 36 189 3.2 4.8 0.00 0.00 0.00 38 1011.3
20260905214739 37 225 3.2 4.8 0.00 0.00 0.00 37 1011.6
20260905214235 37 218 3.2 4.8 0.00 0.00 0.00 35 1011.7
20260905213730 37 198 8.0 11.3 0.00 0.00 0.00 37 1011.9
20260905213226 38 205 3.2 4.8 0.00 0.00 0.00 36 1011.8
20260905212721 38 190 3.2 4.8 0.00 0.00 0.00 35 1011.8
20260905212220 38 191 3.2 4.8 0.00 0.00 0.00 36 1011.9
20260905211719 38 205 1.6 3.2 0.00 0.00 0.00 35 1011.7
20260905211215 38 201 1.6 3.2 0.00 0.00 0.00 36 1011.7
20260905210712 38 213 6.4 6.4 0.00 0.00 0.00 35 1012.1
20260905210212 38 226 3.2 3.2 0.00 0.00 0.00 35 1012.0
20260905205710 38 179 1.6 3.2 0.00 0.00 0.00 36 1012.2
20260905205205 38 210 3.2 4.8 0.00 0.00 0.00 34 1012.2
20260905204705 38 203 4.8 6.4 0.00 0.00 0.00 35 1012.3
20260905204200 37 194 11.3 14.5 0.00 0.00 0.00 36 1012.3
20260905203654 38 155 4.8 6.4 0.00 0.00 0.00 36 1012.2
20260905203150 38 231 1.6 4.8 0.00 0.00 0.00 35 1012.4